This demonstration page uses our WeatherBlox Daily Observations layout. Learn more.

Left ArrowRight Arrow

39.51506, -84.39828

Hourly Observations for May 29, 2019

Temp ( °F °C ) Dew Point ( °F °C ) Humidity (%) Winds ( mph kmh ) Pressure ( in mb ) Visibility ( mi km ) Precip ( " mm )
12:15 am 00:15 Clear 71 21.5 66 18.9 85 85 W 3 6 29.77 1008 10 16 N/A
12:35 am 00:35 Clear with Mist and Fog 70 21.1 66 18.9 87 87 N N/A 29.77 1008 7 11 N/A
12:55 am 00:55 Clear 68 20.2 66 18.8 92 92 N N/A 29.77 1008 10 16 N/A
1:15 am 01:15 Clear 68 20.1 66 19.1 94 94 N N/A 29.76 1008 7 11 N/A
1:35 am 01:35 Clear with Mist and Fog 67 19.3 66 18.8 97 97 N N/A 29.76 1008 7 11 N/A
1:55 am 01:55 Clear 67 19.4 66 18.8 96 96 N 3 6 29.77 1008 10 16 N/A
2:15 am 02:15 Mostly Cloudy 67 19.7 66 19 96 96 N N/A 29.76 1008 10 16 N/A
2:35 am 02:35 Clear with Mist and Fog 67 19.7 66 19.1 96 96 N N/A 29.76 1008 7 11 N/A
2:55 am 02:55 Mostly Cloudy 67 19.3 66 18.8 97 97 N N/A 29.76 1008 7 11 N/A
3:15 am 03:15 Partly Cloudy 67 19.7 67 19.2 97 97 N N/A 29.76 1008 7 11 N/A
3:35 am 03:35 Clear 68 19.8 66 19.1 96 96 N N/A 29.75 1007 10 16 N/A
3:55 am 03:55 Mostly Cloudy 67 19.4 66 18.9 97 97 N N/A 29.75 1007 7 11 N/A
4:15 am 04:15 Clear 68 19.8 66 19 95 95 N N/A 29.75 1007 10 16 N/A
4:35 am 04:35 Partly Cloudy 69 20.6 66 19 91 91 WSW 6 9 29.73 1007 10 16 N/A
4:55 am 04:55 Clear 70 21.3 67 19.2 88 88 WSW 7 11 29.73 1007 10 16 N/A
5:15 am 05:15 Clear 71 21.5 67 19.4 88 88 WSW 7 11 29.74 1007 10 16 N/A
5:35 am 05:35 Clear 71 21.4 67 19.4 88 88 WSW 7 11 29.74 1007 10 16 N/A
5:55 am 05:55 Clear 71 21.4 67 19.4 88 88 WSW 5 7 29.73 1007 10 16 N/A
6:15 am 06:15 Sunny 71 21.7 67 19.6 88 88 SW 6 9 29.74 1007 10 16 N/A
6:35 am 06:35 Partly Cloudy 71 21.4 67 19.7 90 90 WSW 6 9 29.75 1007 10 16 N/A
6:55 am 06:55 Mostly Cloudy 72 22.1 68 20 88 88 W 5 7 29.75 1007 10 16 N/A
7:15 am 07:15 Mostly Cloudy 72 22.4 69 20.4 89 89 WSW 6 9 29.75 1007 10 16 N/A
7:35 am 07:35 Partly Cloudy 73 22.8 69 20.4 86 86 SW 3 6 29.74 1007 10 16 N/A
7:55 am 07:55 Sunny 75 23.9 69 20.8 83 83 WSW 6 9 29.75 1007 10 16 N/A
8:15 am 08:15 Mostly Cloudy 75 23.7 70 20.9 84 84 WSW 7 11 29.75 1007 10 16 N/A
8:35 am 08:35 Partly Cloudy with Nearby Thunderstorms 75 23.7 69 20.8 84 84 WSW 7 11 29.76 1008 10 16 N/A
8:55 am 08:55 Cloudy with Thunderstorms 74 23.6 70 21 85 85 W 8 13 29.77 1008 10 16 N/A
9:15 am 09:15 Partly Cloudy with Light Rain 74 23.4 71 21.4 89 89 W 8 13 29.78 1008 10 16 N/A
9:35 am 09:35 Cloudy with Light Rain 73 22.8 70 21.3 91 91 WSW 7 11 29.77 1008 10 16 N/A
9:55 am 09:55 Cloudy with Mist and Fog 73 22.7 71 21.4 92 92 SW 13 20 29.78 1008 7 11 0.03 0.76
10:15 am 10:15 Partly Cloudy with Light Rain 73 22.5 71 21.5 94 94 WSW 13 20 29.77 1008 10 16 N/A
10:35 am 10:35 Cloudy with Light Rain 72 22.4 70 21 92 92 WSW 8 13 29.75 1007 10 16 N/A
10:55 am 10:55 Partly Cloudy 72 22.3 69 20.3 89 89 WSW 9 15 29.74 1007 10 16 N/A
11:15 am 11:15 Sunny 73 22.8 68 20.2 85 85 W 7 11 29.72 1006 10 16 N/A
11:35 am 11:35 Sunny 73 22.8 69 20.4 86 86 WSW 6 9 29.74 1007 10 16 N/A
11:55 am 11:55 Sunny 74 23.2 68 19.9 82 82 WSW 10 17 29.74 1007 10 16 N/A
12:15 pm 12:15 Sunny 73 22.8 66 19 79 79 WSW 10 17 29.75 1007 10 16 N/A
12:35 pm 12:35 Sunny 73 23 67 19.2 79 79 WSW 9 15 29.76 1008 10 16 N/A
12:55 pm 12:55 Sunny 74 23.4 66 19 76 76 W 10 17 29.76 1008 10 16 N/A
1:15 pm 13:15 Sunny 74 23.1 66 18.9 77 77 W 10 17 29.77 1008 10 16 N/A
1:35 pm 13:35 Sunny 73 22.7 65 18.6 78 78 W 12 19 29.78 1008 10 16 N/A
1:55 pm 13:55 Sunny 73 22.6 65 18.2 76 76 W 15 24 29.78 1008 10 16 N/A
2:15 pm 14:15 Sunny 73 22.7 65 18.4 77 77 W 14 22 29.78 1008 10 16 N/A
2:35 pm 14:35 Sunny 73 22.9 65 18.4 76 76 W 13 20 29.78 1008 10 16 N/A
2:55 pm 14:55 Sunny 75 23.8 66 18.8 74 74 W 10 17 29.77 1008 10 16 N/A
3:15 pm 15:15 Sunny 75 23.8 65 18.6 73 73 W 13 20 29.77 1008 10 16 N/A
3:35 pm 15:35 Sunny 75 23.8 66 18.8 74 74 W 8 13 29.78 1008 10 16 N/A
3:55 pm 15:55 Sunny 76 24.2 66 19.1 73 73 WSW 10 17 29.78 1008 10 16 N/A
4:15 pm 16:15 Mostly Cloudy 76 24.7 66 19 71 71 WSW 10 17 29.77 1008 10 16 N/A
4:35 pm 16:35 Partly Cloudy 78 25.6 67 19.7 70 70 W 8 13 29.77 1008 10 16 N/A
4:55 pm 16:55 Cloudy 76 24.3 67 19.2 73 73 SW 8 13 29.77 1008 10 16 N/A
5:15 pm 17:15 Mostly Cloudy 77 25.1 67 19.7 72 72 WSW 9 15 29.76 1008 10 16 N/A
5:35 pm 17:35 Partly Cloudy 78 25.5 68 19.8 71 71 W 3 6 29.75 1008 10 16 N/A
5:55 pm 17:55 Partly Cloudy 79 26.2 67 19.5 67 67 WNW 9 15 29.76 1008 10 16 N/A
6:15 pm 18:15 Partly Cloudy 79 26.3 67 19.3 65 65 WNW 8 13 29.76 1008 10 16 N/A
6:55 pm 18:55 Sunny 77 25.2 65 18.3 66 66 W 10 17 29.76 1008 10 16 N/A
7:15 pm 19:15 Partly Cloudy 77 24.8 66 19 70 70 WSW 7 11 29.76 1008 10 16 N/A
7:35 pm 19:35 Mostly Cloudy 76 24.5 66 18.7 70 70 W 12 19 29.77 1008 10 16 N/A
8:00 pm 20:00 Mostly Cloudy 75 24.1 67 19.4 75 75 WSW 5 7 29.77 1008 10 16 N/A
8:15 pm 20:15 Mostly Cloudy 75 23.8 67 19.5 77 77 WSW 7 11 29.78 1008 10 16 N/A
8:30 pm 20:30 Cloudy 75 23.9 67 19.2 75 75 WSW 6 9 29.78 1008 10 16 N/A
9:00 pm 21:00 Mostly Cloudy 74 23.1 67 19.6 81 81 SW 5 7 29.78 1008 10 16 N/A
9:15 pm 21:15 Mostly Cloudy 73 22.9 67 19.5 81 81 SSW 5 7 29.77 1008 10 16 N/A
9:35 pm 21:35 Partly Cloudy 71 21.6 68 20.2 92 92 W 5 7 29.79 1009 10 16 N/A
9:55 pm 21:55 Clear 70 21.1 67 19.4 90 90 WSW 6 9 29.80 1009 10 16 N/A
10:15 pm 22:15 Mostly Cloudy 69 20.5 67 19.5 94 94 W 3 6 29.81 1010 10 16 N/A
10:35 pm 22:35 Partly Cloudy 70 21 67 19.4 91 91 SW 3 6 29.80 1009 10 16 N/A
10:55 pm 22:55 Clear 68 19.8 66 19.1 96 96 W 5 7 29.83 1010 10 16 N/A
11:15 pm 23:15 Partly Cloudy 68 20.2 67 19.2 94 94 WSW 5 7 29.82 1010 10 16 N/A
11:35 pm 23:35 Partly Cloudy 69 20.5 67 19.4 93 93 WSW 5 7 29.82 1010 10 16 N/A
11:55 pm 23:55 Cloudy 69 20.6 67 19.6 94 94 SW 7 11 29.82 1010 10 16 N/A

Powered by AerisWeather